CDT,Max TemperatureF,Mean TemperatureF,Min TemperatureF,Max Dew PointF,MeanDew PointF,Min DewpointF,Max Humidity, Mean Humidity, Min Humidity, Max Sea Level PressureIn, Mean Sea Level PressureIn, Min Sea Level PressureIn, Max VisibilityMiles, Mean VisibilityMiles, Min VisibilityMiles, Max Wind SpeedMPH, Mean Wind SpeedMPH, Max Gust SpeedMPH,PrecipitationIn, CloudCover, Events, WindDirDegrees
2012-3-1,46,36,26,30,26,21,80,67,53,29.87,29.78,29.67,10,10,10,15,9,21,0.00,5,,34
2012-3-2,42,36,30,32,26,19,81,69,42,29.81,29.67,29.60,10,8,1,21,12,28,0.01,4,Snow,339
2012-3-3,37,30,24,19,16,12,64,54,38,29.92,29.85,29.78,10,10,10,28,19,36,0.00,6,,295
2012-3-4,30,24,17,23,16,10,80,73,64,29.97,29.90,29.85,10,9,1,9,4,,0.00,5,Snow,300
2012-3-5,46,30,15,21,16,10,86,61,29,30.32,30.22,30.07,10,10,7,18,8,25,0.01,1,,202
2012-3-6,73,54,35,37,28,19,56,37,14,29.93,29.78,29.70,10,10,10,32,16,41,0.00,0,,192
2012-3-7,66,52,37,48,42,30,76,62,49,29.93,29.75,29.69,10,10,5,25,17,39,0.04,5,Rain,221
2012-3-8,48,37,26,25,16,1,75,49,16,30.34,30.23,30.03,10,10,10,23,13,36,0.00,1,,299
2012-3-9,48,36,23,19,4,-15,69,35,8,30.60,30.51,30.40,10,10,10,15,7,18,0.00,0,,356
2012-3-10,66,52,37,21,12,-11,52,28,4,30.33,30.24,30.11,10,10,10,24,14,31,0.00,0,,203
2012-3-11,59,48,37,46,33,21,82,56,26,30.14,30.00,29.78,10,9,2,20,9,26,0.41,4,Rain,161
2012-3-12,62,53,44,46,44,39,87,73,52,29.95,29.79,29.73,10,10,5,16,10,22,0.16,5,Rain,216
2012-3-13,75,56,37,46,40,34,87,61,27,30.08,30.01,29.92,10,7,0,14,6,18,0.00,1,Fog,170
2012-3-14,80,68,57,57,51,45,82,60,34,29.90,29.86,29.82,10,10,10,20,12,25,0.00,2,,195
2012-3-15,80,65,50,57,53,45,88,68,42,30.03,29.97,29.91,10,8,0,15,7,,0.00,2,,226
2012-3-16,80,68,57,61,55,52,88,64,37,29.98,29.93,29.87,10,9,2,17,8,26,0.00,2,,181
2012-3-17,78,69,60,61,57,54,77,64,47,29.93,29.89,29.83,10,10,10,23,11,29,0.00,1,,170
2012-3-18,77,67,57,57,55,52,82,66,50,29.89,29.86,29.81,10,10,7,25,12,32,0.00,4,,162
2012-3-19,78,68,59,59,56,54,82,66,42,29.82,29.77,29.67,10,10,3,26,12,34,0.17,4,Rain,167
2012-3-20,71,63,55,55,53,52,88,75,53,29.95,29.85,29.76,10,10,4,16,6,21,0.16,7,Rain,164
2012-3-21,68,62,57,57,54,52,88,77,64,29.98,29.95,29.91,10,10,10,15,7,16,0.12,5,Rain,126
2012-3-22,66,60,53,55,51,48,88,77,59,30.00,29.96,29.91,10,10,7,14,7,18,0.36,7,Rain,123
2012-3-23,64,55,46,52,46,41,87,76,56,29.96,29.91,29.85,10,7,0,12,3,,0.00,3,Fog,4
2012-3-24,71,61,51,54,50,45,77,68,50,29.96,29.91,29.84,10,10,7,13,9,18,0.00,5,,322
2012-3-25,73,60,46,54,48,41,87,67,38,30.12,30.07,30.03,10,6,0,7,2,,0.00,1,Fog,336
2012-3-26,62,55,48,50,42,36,82,61,39,30.19,30.11,30.02,10,10,3,21,12,30,0.00,2,,99
2012-3-27,77,62,48,57,47,30,82,57,19,29.96,29.86,29.79,10,10,7,23,18,36,0.00,3,Rain,190
2012-3-28,71,56,42,41,35,25,76,45,17,30.06,29.99,29.92,10,10,10,12,6,,0.00,0,,302
2012-3-29,62,56,51,48,42,30,82,61,38,30.02,29.90,29.74,10,10,4,20,10,30,0.20,2,Rain,107
2012-3-30,60,54,48,52,47,43,87,79,67,29.84,29.77,29.66,10,8,1,18,7,29,0.49,7,Rain,22
2012-3-31,73,62,50,57,49,45,82,74,57,29.86,29.81,29.69,10,6,2,15,10,20,0.00,5,,128